User: anonymous   Login
Location: Buckenweiler
(49.0667°N, 10.2500°E)
Time: 13:45:59
(UTC+00:00)
Language:

Lacrosse 5 rocket - Orbit

View from above orbital plane
View from above orbital plane
View from above satellite
View from above satellite

Ground track
Ground track

The orbit is defined by the following mean orbital elements,

1 28647U          26071.83343891 +.00000000 +00000-0 +44302-3 0 00001
2 28647  56.9966 233.1210 0062227  25.7084 334.7041 15.42810380    01
Epoch (UTC): 12 March 2026 20:00:09
Eccentricity: 0.0062227
inclination: 56.9966°
perigee height: 395 km
apogee height: 480 km
right ascension of ascending node: 233.1210°
argument of perigee: 25.7084°
revolutions per day: 15.42810380
mean anomaly at epoch: 334.7041°

The dashed part of the orbit path shows where the satellite is in the earth's shadow,  

DLR